TimeCDT,TemperatureF,Dew PointF,Humidity,Sea Level PressureIn,VisibilityMPH,Wind Direction,Wind SpeedMPH,Gust SpeedMPH,PrecipitationIn,Events,Conditions,WindDirDegrees,DateUTC
12:15 AM,46.6,36.0,67,30.33,10.0,SE,6.9,-,N/A,,Clear,140,2013-05-25 05:15:00
12:35 AM,46.2,37.4,71,30.33,10.0,SE,4.6,-,N/A,,Clear,130,2013-05-25 05:35:00
12:55 AM,46.4,38.3,73,30.32,10.0,SSE,5.8,-,N/A,,Clear,150,2013-05-25 05:55:00
1:15 AM,46.4,38.7,74,30.32,10.0,Calm,Calm,-,N/A,,Clear,0,2013-05-25 06:15:00
1:35 AM,46.4,39.0,75,30.32,10.0,Calm,Calm,-,N/A,,Clear,0,2013-05-25 06:35:00
1:55 AM,46.0,38.8,76,30.33,10.0,Calm,Calm,-,N/A,,Clear,0,2013-05-25 06:55:00
2:15 AM,45.5,38.8,78,30.33,10.0,Calm,Calm,-,N/A,,Clear,0,2013-05-25 07:15:00
2:35 AM,44.4,38.5,80,30.33,10.0,Calm,Calm,-,N/A,,Clear,0,2013-05-25 07:35:00
2:55 AM,43.7,38.7,82,30.33,10.0,Calm,Calm,-,N/A,,Clear,0,2013-05-25 07:55:00
3:15 AM,43.3,39.2,85,30.33,10.0,East,3.5,-,N/A,,Clear,90,2013-05-25 08:15:00
3:35 AM,42.6,38.5,85,30.33,10.0,East,3.5,-,N/A,,Clear,80,2013-05-25 08:35:00
3:55 AM,42.3,38.3,86,30.33,10.0,East,5.8,-,N/A,,Clear,90,2013-05-25 08:55:00
4:15 AM,42.8,38.3,84,30.34,10.0,East,5.8,-,N/A,,Clear,90,2013-05-25 09:15:00
4:35 AM,42.8,38.3,84,30.34,10.0,East,4.6,-,N/A,,Clear,90,2013-05-25 09:35:00
4:55 AM,42.8,37.8,82,30.34,10.0,East,3.5,-,N/A,,Clear,100,2013-05-25 09:55:00
5:15 AM,43.0,37.4,81,30.35,10.0,East,4.6,-,N/A,,Clear,100,2013-05-25 10:15:00
5:35 AM,43.2,37.0,79,30.36,10.0,Calm,Calm,-,N/A,,Mostly Cloudy,0,2013-05-25 10:35:00
5:55 AM,44.1,37.2,77,30.37,10.0,South,3.5,-,N/A,,Overcast,190,2013-05-25 10:55:00
6:15 AM,44.6,37.6,76,30.38,10.0,Calm,Calm,-,N/A,,Overcast,0,2013-05-25 11:15:00
6:35 AM,44.8,37.4,75,30.38,10.0,East,3.5,-,N/A,,Mostly Cloudy,80,2013-05-25 11:35:00
6:55 AM,45.1,37.0,73,30.39,10.0,East,4.6,-,N/A,,Mostly Cloudy,90,2013-05-25 11:55:00
7:15 AM,45.5,36.3,70,30.40,10.0,East,4.6,-,N/A,,Overcast,100,2013-05-25 12:15:00
7:35 AM,46.4,35.1,65,30.40,10.0,ESE,6.9,-,N/A,,Overcast,110,2013-05-25 12:35:00
7:55 AM,47.3,34.7,62,30.38,10.0,East,8.1,-,N/A,,Overcast,100,2013-05-25 12:55:00
8:15 AM,48.0,33.4,57,30.38,10.0,SE,9.2,-,N/A,,Overcast,130,2013-05-25 13:15:00
8:35 AM,49.1,32.5,53,30.38,10.0,ESE,6.9,-,N/A,,Mostly Cloudy,120,2013-05-25 13:35:00
8:55 AM,50.9,34.0,52,30.38,10.0,ESE,10.4,-,N/A,,Scattered Clouds,110,2013-05-25 13:55:00
9:15 AM,51.4,33.4,50,30.39,10.0,ESE,9.2,-,N/A,,Mostly Cloudy,120,2013-05-25 14:15:00
9:35 AM,52.5,34.0,49,30.39,10.0,SE,8.1,-,N/A,,Overcast,130,2013-05-25 14:35:00
9:55 AM,53.8,36.1,51,30.39,10.0,East,10.4,-,N/A,,Overcast,100,2013-05-25 14:55:00
10:15 AM,53.8,36.9,53,30.39,10.0,East,9.2,-,N/A,,Overcast,100,2013-05-25 15:15:00
10:35 AM,56.3,37.8,50,30.38,10.0,SE,10.4,-,N/A,,Overcast,130,2013-05-25 15:35:00
10:55 AM,58.1,37.4,46,30.38,10.0,SE,8.1,16.1,N/A,,Overcast,140,2013-05-25 15:55:00
11:15 AM,59.4,36.9,43,30.36,10.0,SE,9.2,18.4,N/A,,Overcast,130,2013-05-25 16:15:00
11:35 AM,57.6,36.7,46,30.35,10.0,SE,9.2,-,N/A,,Mostly Cloudy,140,2013-05-25 16:35:00
11:55 AM,59.2,34.2,39,30.36,10.0,SE,10.4,-,N/A,,Clear,130,2013-05-25 16:55:00
12:15 PM,59.4,34.3,39,30.36,10.0,East,11.5,16.1,N/A,,Scattered Clouds,100,2013-05-25 17:15:00
12:35 PM,61.3,34.3,36,30.36,10.0,SE,10.4,18.4,N/A,,Mostly Cloudy,140,2013-05-25 17:35:00
12:55 PM,59.9,33.4,37,30.35,10.0,ESE,12.7,17.3,N/A,,Scattered Clouds,120,2013-05-25 17:55:00
1:15 PM,60.3,32.9,36,30.35,10.0,ESE,12.7,18.4,N/A,,Clear,120,2013-05-25 18:15:00
1:35 PM,60.3,33.3,36,30.34,10.0,SE,9.2,17.3,N/A,,Clear,130,2013-05-25 18:35:00
1:55 PM,60.4,34.5,38,30.34,10.0,SSE,9.2,20.7,N/A,,Clear,150,2013-05-25 18:55:00
2:15 PM,61.5,34.3,36,30.33,10.0,SE,10.4,17.3,N/A,,Clear,130,2013-05-25 19:15:00
2:35 PM,61.7,33.3,34,30.34,10.0,SSE,12.7,16.1,N/A,,Clear,150,2013-05-25 19:35:00
2:55 PM,62.1,33.4,34,30.34,10.0,ESE,11.5,17.3,N/A,,Clear,120,2013-05-25 19:55:00
3:15 PM,61.7,32.7,34,30.34,10.0,SE,9.2,-,N/A,,Clear,140,2013-05-25 20:15:00
3:35 PM,62.2,33.3,34,30.34,10.0,SE,6.9,-,N/A,,Clear,130,2013-05-25 20:35:00
3:55 PM,61.7,32.9,34,30.33,10.0,ESE,4.6,-,N/A,,Clear,110,2013-05-25 20:55:00
4:15 PM,62.1,32.9,34,30.33,10.0,SE,9.2,-,N/A,,Clear,140,2013-05-25 21:15:00
4:35 PM,62.2,34.0,35,30.33,10.0,SE,10.4,-,N/A,,Clear,130,2013-05-25 21:35:00
4:55 PM,62.8,34.9,35,30.33,10.0,SE,9.2,-,N/A,,Clear,130,2013-05-25 21:55:00
5:15 PM,62.6,33.4,34,30.32,10.0,SSE,5.8,-,N/A,,Clear,160,2013-05-25 22:15:00
5:35 PM,61.3,33.1,35,30.30,10.0,East,9.2,-,N/A,,Clear,100,2013-05-25 22:35:00
5:55 PM,61.9,35.2,37,30.30,10.0,ESE,10.4,-,N/A,,Clear,120,2013-05-25 22:55:00
6:15 PM,61.3,34.9,37,30.30,10.0,SE,10.4,-,N/A,,Clear,140,2013-05-25 23:15:00
6:35 PM,61.3,35.4,38,30.30,10.0,East,9.2,-,N/A,,Clear,100,2013-05-25 23:35:00
6:55 PM,60.8,35.6,39,30.30,10.0,SE,8.1,-,N/A,,Clear,130,2013-05-25 23:55:00
7:15 PM,60.1,36.3,41,30.30,10.0,SE,8.1,-,N/A,,Clear,130,2013-05-26 00:15:00
7:35 PM,58.8,36.1,43,30.30,10.0,ESE,5.8,-,N/A,,Clear,110,2013-05-26 00:35:00
7:55 PM,57.4,36.7,46,30.30,10.0,ESE,4.6,-,N/A,,Clear,120,2013-05-26 00:55:00
8:15 PM,56.5,36.7,48,30.30,10.0,ESE,5.8,-,N/A,,Clear,120,2013-05-26 01:15:00
8:35 PM,55.0,36.5,50,30.30,10.0,SE,4.6,-,N/A,,Clear,130,2013-05-26 01:35:00
8:55 PM,54.1,36.5,51,30.30,10.0,ESE,4.6,-,N/A,,Clear,120,2013-05-26 01:55:00
9:15 PM,53.2,36.5,53,30.31,10.0,SE,3.5,-,N/A,,Clear,130,2013-05-26 02:15:00
9:35 PM,52.5,36.1,54,30.32,10.0,SE,3.5,-,N/A,,Clear,130,2013-05-26 02:35:00
9:55 PM,51.4,36.0,56,30.32,10.0,ESE,3.5,-,N/A,,Clear,120,2013-05-26 02:55:00
10:15 PM,50.0,36.1,59,30.32,10.0,East,3.5,-,N/A,,Clear,100,2013-05-26 03:15:00
10:35 PM,48.6,36.9,64,30.33,10.0,East,4.6,-,N/A,,Clear,90,2013-05-26 03:35:00
10:55 PM,47.3,38.5,71,30.32,10.0,East,3.5,-,N/A,,Clear,100,2013-05-26 03:55:00
11:15 PM,48.2,35.6,62,30.32,10.0,ESE,3.5,-,N/A,,Clear,120,2013-05-26 04:15:00
11:35 PM,48.0,35.6,62,30.32,10.0,Calm,Calm,-,N/A,,Clear,0,2013-05-26 04:35:00
11:55 PM,42.8,35.4,75,30.32,10.0,ENE,3.5,-,N/A,,Clear,70,2013-05-26 04:55:00